FW4043 Weather Reports


Display with metric or nautical units.
time (UTC)temp
F
wind
direction
speed
MPH
gust
MPH
rain 1hr
in
rain 24hr
in
rain mn
in
humidity
%
barometer
mb
20260904123007 80 74 0.0 0.0 0.00 0.21 0.00 92 1015.0
20260904121553 80 74 0.0 0.0 0.00 0.21 0.00 92 1014.9
20260904120101 80 74 0.0 0.0 0.00 0.21 0.00 92 1014.9
20260904114506 80 74 0.0 4.0 0.00 0.21 0.00 92 1014.8
20260904113012 80 105 0.0 1.0 0.00 0.21 0.00 92 1014.9
20260904111518 80 103 5.0 7.0 0.00 0.21 0.00 92 1014.7
20260904110024 80 104 6.0 9.0 0.00 0.21 0.00 92 1014.6
20260904104554 80 67 0.0 4.0 0.00 0.21 0.00 92 1014.5
20260904103044 80 69 0.0 1.0 0.00 0.21 0.00 92 1014.3
20260904101545 80 69 0.0 5.0 0.00 0.21 0.00 92 1014.2
20260904100107 80 97 1.0 4.0 0.00 0.21 0.00 92 1014.3
20260904094510 80 103 0.0 5.0 0.00 0.21 0.00 92 1014.3
20260904093012 80 94 1.0 9.0 0.00 0.21 0.00 92 1014.0
20260904091522 81 116 7.0 9.0 0.00 0.21 0.00 92 1013.9
20260904090027 81 124 8.0 11.0 0.00 0.21 0.00 92 1014.1
20260904084532 80 112 8.0 10.0 0.00 0.21 0.00 92 1014.1
20260904083036 81 125 7.0 9.0 0.00 0.21 0.00 92 1014.2
20260904081547 80 119 8.0 10.0 0.00 0.21 0.00 92 1014.2
20260904080123 80 114 7.0 10.0 0.00 0.21 0.00 92 1014.2
20260904074608 80 113 7.0 9.0 0.00 0.21 0.00 92 1014.1
20260904074508 80 122 7.0 9.0 0.00 0.21 0.00 92 1014.2
20260904073049 80 116 6.0 9.0 0.00 0.21 0.00 92 1014.3
20260904071601 80 123 8.0 10.0 0.00 0.21 0.00 92 1014.2
20260904070100 80 111 7.0 11.0 0.00 0.21 0.00 92 1014.4
20260904070002 80 113 7.0 11.0 0.00 0.21 0.00 92 1014.4
20260904064509 80 118 7.0 10.0 0.00 0.21 0.00 92 1014.4
20260904063016 80 127 7.0 9.0 0.00 0.21 0.00 92 1014.3
20260904061557 80 125 6.0 8.0 0.00 0.21 0.00 92 1014.5
20260904060010 81 139 6.0 13.0 0.00 0.21 0.00 92 1014.7
20260904054520 81 130 4.0 8.0 0.00 0.21 0.00 92 1014.8
20260904053033 80 126 4.0 6.0 0.00 0.21 0.00 91 1014.8
20260904051526 80 128 4.0 6.0 0.00 0.21 0.00 91 1014.6
20260904050036 80 121 4.0 7.0 0.00 0.21 0.00 91 1014.7
20260904044531 80 134 4.0 8.0 0.00 0.21 0.21 91 1014.6
20260904043038 81 135 3.0 6.0 0.00 0.21 0.21 91 1014.6
20260904041546 81 161 5.0 10.0 0.00 0.21 0.21 91 1014.6
20260904040055 81 148 5.0 9.0 0.00 0.21 0.21 91 1014.7
20260904034505 81 173 7.0 10.0 0.00 0.21 0.21 91 1014.7
20260904033009 81 145 6.0 9.0 0.00 0.21 0.21 91 1014.7
20260904031516 81 131 5.0 8.0 0.00 0.21 0.21 91 1014.7
20260904030025 81 124 5.0 8.0 0.00 0.21 0.21 91 1014.7
20260904024535 81 132 5.0 8.0 0.00 0.21 0.21 91 1014.7
20260904023055 81 138 4.0 6.0 0.00 0.21 0.21 91 1014.6
20260904021559 81 133 4.0 6.0 0.00 0.21 0.21 91 1014.4
20260904020057 81 116 5.0 9.0 0.00 0.21 0.21 90 1014.2
20260904014508 81 106 6.0 7.0 0.00 0.21 0.21 90 1014.2
20260904013016 81 112 6.0 8.0 0.00 0.21 0.21 90 1014.0
20260904011521 81 107 4.0 6.0 0.00 0.21 0.21 90 1013.9
20260904010011 81 119 4.0 7.0 0.00 0.21 0.21 90 1013.8
20260904004512 81 126 4.0 7.0 0.00 0.21 0.21 89 1013.5
20260904003018 81 119 5.0 7.0 0.00 0.21 0.21 89 1013.6
20260904001507 81 126 6.0 10.0 0.00 0.21 0.21 89 1013.7
20260904000014 81 121 4.0 8.0 0.00 0.21 0.21 89 1013.6
20260903234515 81 134 5.0 10.0 0.00 0.21 0.21 89 1013.7
20260903233020 81 125 5.0 7.0 0.00 0.21 0.21 89 1013.7
20260903231528 81 103 4.0 7.0 0.00 0.21 0.21 89 1013.7
20260903230028 81 152 4.0 9.0 0.00 0.21 0.21 89 1013.9
20260903224538 81 126 7.0 10.0 0.00 0.21 0.21 89 1013.8
20260903223010 81 98 2.0 5.0 0.00 0.21 0.21 88 1014.0
20260903221514 81 92 2.0 6.0 0.00 0.21 0.21 88 1014.3
20260903220020 81 59 0.0 6.0 0.00 0.21 0.21 88 1014.4
20260903214524 81 56 2.0 6.0 0.00 0.21 0.21 87 1014.4
20260903213040 81 59 2.0 6.0 0.00 0.21 0.21 87 1014.9
20260903211530 81 59 0.0 5.0 0.00 0.21 0.21 87 1015.1
20260903210057 81 110 1.0 6.0 0.00 0.21 0.21 88 1015.3
20260903204545 81 86 3.0 8.0 0.00 0.21 0.21 87 1014.9
20260903203035 81 336 8.0 11.0 0.00 0.21 0.21 88 1014.8
20260903201515 81 304 7.0 13.0 0.01 0.21 0.21 88 1014.9
20260903200020 82 347 8.0 16.0 0.01 0.21 0.21 88 1014.8
20260903194532 81 309 3.0 6.0 0.01 0.21 0.21 85 1014.9
20260903193024 82 88 0.0 5.0 0.08 0.21 0.21 85 1015.0
20260903191529 82 269 1.0 6.0 0.08 0.20 0.20 85 1015.0
20260903190029 82 355 4.0 12.0 0.09 0.20 0.20 86 1014.8
20260903184514 82 309 5.0 9.0 0.11 0.20 0.20 86 1014.8
20260903183019 81 243 0.0 8.0 0.13 0.13 0.13 84 1015.0
20260903181532 81 75 1.0 10.0 0.12 0.12 0.12 84 1015.7
20260903180019 82 46 2.0 12.0 0.11 0.11 0.11 82 1015.4
20260903174525 84 120 10.0 19.0 0.08 0.08 0.09 82 1015.5
20260903173027 90 243 3.0 10.0 0.00 0.00 0.00 78 1015.0
20260903171532 91 139 2.0 9.0 0.00 0.00 0.00 79 1015.2
20260903170039 91 173 8.0 13.0 0.00 0.00 0.00 78 1015.4
20260903164545 90 117 5.0 12.0 0.00 0.00 0.00 81 1015.5
20260903163032 89 161 5.0 10.0 0.00 0.00 0.00 82 1015.5
20260903161544 88 309 2.0 8.0 0.00 0.00 0.00 83 1015.7
20260903160047 88 236 3.0 10.0 0.00 0.00 0.00 83 1015.5
20260903154546 88 212 6.0 12.0 0.00 0.00 0.00 84 1015.6
20260903153046 87 237 4.0 14.0 0.00 0.00 0.00 85 1015.6
20260903151556 87 213 4.0 18.0 0.00 0.00 0.00 87 1015.7
20260903150104 86 155 3.0 11.0 0.00 0.00 0.00 88 1015.7
20260903144555 84 147 2.0 10.0 0.00 0.00 0.00 89 1015.9
20260903143106 84 127 8.0 11.0 0.00 0.00 0.00 89 1015.9
20260903143002 83 131 8.0 11.0 0.00 0.00 0.00 89 1016.0
20260903141508 83 134 9.0 13.0 0.00 0.00 0.00 89 1015.9
20260903140007 82 119 9.0 12.0 0.00 0.00 0.00 90 1016.1
20260903134508 82 221 1.0 10.0 0.00 0.00 0.00 90 1015.8
20260903133019 81 123 8.0 10.0 0.00 0.00 0.00 90 1015.8
20260903131527 81 184 1.0 7.0 0.00 0.00 0.00 90 1015.9
20260903130017 81 188 0.0 7.0 0.00 0.00 0.00 90 1015.7
20260903124527 81 131 7.0 10.0 0.00 0.00 0.00 90 1015.4